Stations météo

Publicité
Beziers-Vias, France (7638): Température de l'air & dewpoint: 11.08.2019 17:00:00 - 17.08.2019 17:00:00 (CEST)Beziers-Vias, France (7638): Vitesse du vent & gusts: 11.08.2019 17:00:00 - 17.08.2019 17:00:00 (CEST)Beziers-Vias, France (7638): Direction du vent: 11.08.2019 17:00:00 - 17.08.2019 17:00:00 (CEST)Beziers-Vias, France (7638): reduced air pressure: 11.08.2019 17:00:00 - 17.08.2019 17:00:00 (CEST)Beziers-Vias, France (7638): visibility: 11.08.2019 17:00:00 - 17.08.2019 17:00:00 (CEST)Beziers-Vias, France (7638): Quantités de précipitations: 11.08.2019 17:00:00 - 17.08.2019 17:00:00 (CEST)
Date & Time tt [°C] td [°C] ff [km/h] ff [knt] fx [km/h] fx [knt] dd ppp [hPa] vv [km] rr [mm]
17.08.2019 17:00:00 27,6 19,9 17 9 27 15 SSE 1014,8 21 0,0
17.08.2019 16:00:00 28,7 18,2 12 7 27 14 ESE 1015,0 21 0,0
17.08.2019 15:00:00 27,4 19,2 15 8 27 14 SSE 1015,4 23 0,0
17.08.2019 14:00:00 26,7 19,3 14 8 27 15 SE 1015,9 25 0,0
17.08.2019 13:00:00 25,5 19,2 16 9 30 16 SSE 1016,3 29 0,0
17.08.2019 12:00:00 25,4 19,1 12 7 23 12 SE 1016,3 20 0,0
17.08.2019 11:00:00 25,0 18,7 8 5 17 9 E 1016,5 20 0,0
17.08.2019 10:00:00 21,7 18,7 8 4 16 9 ESE 1016,5 20 0,0
17.08.2019 09:00:00 19,9 15,7 2 1 7 4 ENE 1016,5 51 0,0
17.08.2019 08:00:00 16,7 14,5 4 2 11 6 WNW 1016,4 43 0,0
17.08.2019 07:00:00 15,0 13,4 6 4 15 8 N 1016,2 41 0,0
17.08.2019 06:00:00 15,7 13,9 13 7 16 9 N 1016,1 47 0,0
17.08.2019 05:00:00 15,8 14,2 0 0 15 8 N 1015,9 40 0,0
17.08.2019 04:00:00 16,4 14,6 5 3 11 6 WNW 1015,8 35 0,0
17.08.2019 03:00:00 16,8 15,3 9 5 13 7 N 1016,0 37 0,0
17.08.2019 02:00:00 17,6 15,9 4 2 8 4 N 1015,9 33 0,0
17.08.2019 01:00:00 18,4 16,4 3 1 6 4 N 1016,1 35 0,0
17.08.2019 00:00:00 19,3 17,1 5 3 9 5 NE 1016,2 36 0,0
16.08.2019 23:00:00 20,6 17,6 3 2 6 4 SE 1016,1 35 0,0
16.08.2019 22:00:00 21,3 17,9 2 1 10 5 SW 1016,3 45 0,0
16.08.2019 21:00:00 22,2 17,3 4 2 21 12 SSW 1015,7 55 0,0
16.08.2019 20:00:00 23,4 16,0 14 7 31 17 SSW 1015,3 57 0,0
16.08.2019 19:00:00 24,7 15,1 22 12 36 19 SSW 1015,1 16 0,0
16.08.2019 18:00:00 25,5 14,9 21 12 35 19 S 1015,3 17 0,0
16.08.2019 17:00:00 26,3 13,1 23 13 35 19 S 1015,6 22 0,0
16.08.2019 16:00:00 26,5 12,5 20 11 31 17 S 1015,8 28 0,0
16.08.2019 15:00:00 28,3 11,4 16 9 27 14 S 1016,2 35 0,0
16.08.2019 14:00:00 27,7 11,7 16 8 27 15 S 1016,6 51 0,0
16.08.2019 13:00:00 27,2 11,2 11 6 25 14 S 1017,1 53 0,0
16.08.2019 12:00:00 26,7 10,8 11 6 26 14 WSW 1017,8 20 0,0
16.08.2019 11:00:00 25,0 10,8 12 7 26 14 W 1018,8 49 0,0
16.08.2019 10:00:00 24,0 11,3 16 9 27 15 NW 1019,0 43 0,0
16.08.2019 09:00:00 21,5 12,1 15 8 23 13 WNW 1019,2 50 0,0
16.08.2019 08:00:00 17,5 12,0 3 2 8 5 WSW 1019,1 40 0,0
16.08.2019 07:00:00 16,5 11,6 6 3 17 9 WSW 1018,8 60 0,0
16.08.2019 06:00:00 16,1 11,7 13 7 19 10 W 1018,7 60 0,0
16.08.2019 05:00:00 16,0 11,4 9 5 14 7 W 1019,3 60 0,0
16.08.2019 04:00:00 17,9 11,7 8 5 20 11 W 1019,7 60 0,0
16.08.2019 03:00:00 19,2 11,5 13 7 28 15 W 1019,7 60 0,0
16.08.2019 02:00:00 20,7 11,9 19 10 27 15 NW 1019,9 60 0,0
16.08.2019 01:00:00 20,3 11,8 16 9 26 14 W 1020,1 60 0,0
16.08.2019 00:00:00 21,7 10,8 17 9 31 17 WNW 1020,1 60 0,0
15.08.2019 23:00:00 22,7 11,1 19 11 34 18 WNW 1020,0 60 0,0
15.08.2019 22:00:00 24,1 10,7 27 15 48 26 NW 1019,6 60 0,0
15.08.2019 21:00:00 24,9 10,7 21 12 47 26 NW 1019,1 59 0,0
15.08.2019 20:00:00 26,4 10,9 26 14 58 31 NW 1018,5 14 0,0
15.08.2019 19:00:00 27,8 10,5 26 14 56 30 WNW 1017,8 9 0,0
15.08.2019 18:00:00 28,9 10,5 32 18 50 27 NW 1017,7 9 0,0
15.08.2019 17:00:00 29,5 10,1 34 18 60 32 NW 1017,3 11 0,0
15.08.2019 16:00:00 30,1 10,1 35 19 58 31 WNW 1017,4 13 0,0
15.08.2019 15:00:00 29,5 11,1 28 15 50 27 WNW 1017,6 16 0,0
15.08.2019 14:00:00 29,2 11,3 33 18 68 37 NW 1018,2 20 0,0
15.08.2019 13:00:00 28,1 11,6 40 21 61 33 NW 1018,7 27 0,0
15.08.2019 12:00:00 26,0 14,1 24 13 41 22 NNW 1018,9 30 0,0
15.08.2019 11:00:00 25,3 15,3 22 12 46 25 W 1019,3 19 0,0
15.08.2019 10:00:00 24,4 14,8 26 14 44 24 W 1019,1 25 0,0
15.08.2019 09:00:00 22,9 13,1 26 14 41 22 W 1019,0 35 0,0
15.08.2019 08:00:00 21,8 12,6 18 10 32 17 W 1018,7 45 0,0
15.08.2019 07:00:00 19,1 10,9 9 5 20 11 WSW 1018,3 60 0,0
15.08.2019 06:00:00 20,0 10,4 13 7 23 12 W 1017,8 60 0,0
15.08.2019 05:00:00 20,1 10,2 13 7 18 10 W 1017,6 60 0,0
15.08.2019 04:00:00 20,7 9,9 12 6 22 12 W 1017,9 60 0,0
15.08.2019 03:00:00 20,8 9,4 11 6 20 11 W 1017,7 60 0,0
15.08.2019 02:00:00 21,4 8,3 3 2 23 12 WNW 1018,0 60 0,0
15.08.2019 01:00:00 22,1 7,9 9 5 15 8 W 1018,1 46 0,0
15.08.2019 00:00:00 22,5 7,1 11 6 17 9 NNW 1017,7 49 0,0
14.08.2019 23:00:00 24,0 7,2 11 6 27 15 W 1017,4 60 0,0
14.08.2019 22:00:00 24,4 7,1 11 6 18 10 WSW 1017,1 43 0,0
14.08.2019 21:00:00 26,3 7,8 13 7 39 21 NW 1016,3 60 0,0
14.08.2019 20:00:00 28,8 7,4 24 13 42 23 WNW 1015,7 15 0,0
14.08.2019 19:00:00 30,3 6,9 28 15 47 25 WNW 1015,4 12 0,0
14.08.2019 18:00:00 30,8 7,9 29 16 48 26 WNW 1015,1 13 0,0
14.08.2019 17:00:00 31,3 7,7 27 14 52 28 NW 1015,4 15 0,0
14.08.2019 16:00:00 30,7 5,9 26 14 43 23 NNW 1015,5 17 0,0
14.08.2019 15:00:00 30,6 5,8 19 11 43 23 W 1016,1 19 0,0
14.08.2019 14:00:00 30,0 6,6 22 12 40 22 W 1016,8 21 0,0
14.08.2019 13:00:00 28,0 6,7 21 11 39 21 W 1017,6 19 0,0
14.08.2019 12:00:00 26,3 6,8 24 13 40 21 NW 1018,1 25 0,0
14.08.2019 11:00:00 24,6 8,1 23 13 40 22 WNW 1018,9 28 0,0
14.08.2019 10:00:00 22,6 7,9 20 11 32 18 WNW 1019,0 30 0,0
14.08.2019 09:00:00 20,6 8,6 18 10 28 15 WNW 1019,0 34 0,0
14.08.2019 08:00:00 17,6 8,7 16 9 25 13 WNW 1018,7 39 0,0
14.08.2019 07:00:00 15,0 8,0 13 7 20 11 W 1018,8 60 0,0
14.08.2019 06:00:00 15,9 8,6 17 9 22 12 W 1018,7 60 0,0
14.08.2019 05:00:00 17,0 8,2 16 9 23 12 NW 1018,7 60 0,0
14.08.2019 04:00:00 17,4 8,3 16 8 22 12 W 1019,2 60 0,0
14.08.2019 03:00:00 17,2 7,8 12 7 24 13 WNW 1019,3 60 0,0
14.08.2019 02:00:00 18,8 7,9 18 10 28 15 WNW 1019,5 60 0,0
14.08.2019 01:00:00 19,4 8,1 16 8 24 13 WNW 1019,8 60 0,0
14.08.2019 00:00:00 19,7 8,1 16 9 26 14 WNW 1019,5 60 0,0
13.08.2019 23:00:00 19,3 7,7 10 5 35 19 W 1019,2 60 0,0
13.08.2019 22:00:00 21,8 7,6 25 14 37 20 WNW 1018,7 60 0,0
13.08.2019 21:00:00 22,9 7,8 27 15 49 26 NW 1017,8 60 0,0
13.08.2019 20:00:00 24,8 7,9 32 17 54 29 NW 1017,2 16 0,0
13.08.2019 19:00:00 26,2 5,7 35 19 52 28 NW 1016,8 13 0,0
13.08.2019 18:00:00 27,6 5,8 31 17 49 26 NNW 1016,7 15 0,0
13.08.2019 17:00:00 27,9 5,5 32 17 46 25 NNW 1016,6 16 0,0
13.08.2019 16:00:00 28,6 6,6 28 15 53 29 NNW 1016,8 18 0,0
13.08.2019 15:00:00 26,5 4,9 25 13 58 31 N 1017,2 23 0,0
13.08.2019 14:00:00 26,5 6,0 26 14 51 28 N 1017,7 26 0,0
13.08.2019 13:00:00 25,3 4,9 18 10 45 25 NW 1018,6 24 0,0
13.08.2019 12:00:00 23,6 4,5 30 16 48 26 NW 1019,4 26 0,0
13.08.2019 11:00:00 24,0 5,8 23 13 44 24 WNW 1019,7 30 0,0
13.08.2019 10:00:00 22,1 9,3 19 10 33 18 W 1020,1 34 0,0
13.08.2019 09:00:00 19,7 11,5 16 8 24 13 W 1020,1 39 0,0
13.08.2019 08:00:00 17,4 12,3 14 7 20 11 W 1020,2 58 0,0
13.08.2019 07:00:00 15,3 11,5 5 3 15 8 SSW 1020,2 57 0,0
13.08.2019 06:00:00 16,3 11,0 12 6 21 11 WNW 1020,0 60 0,0
13.08.2019 05:00:00 15,1 10,9 9 5 13 7 WNW 1020,2 60 0,0
13.08.2019 04:00:00 17,2 11,2 8 4 21 11 WNW 1020,5 43 0,0
13.08.2019 03:00:00 17,0 12,5 6 4 22 12 WNW 1020,5 55 0,0
13.08.2019 02:00:00 18,2 12,9 11 6 23 13 WSW 1020,7 60 0,0
13.08.2019 01:00:00 18,8 12,8 14 7 23 12 WSW 1020,8 60 0,0
13.08.2019 00:00:00 19,1 12,4 13 7 25 14 WNW 1020,6 19 0,0
12.08.2019 23:00:00 21,0 9,9 19 10 38 20 WNW 1020,3 56 0,0
12.08.2019 22:00:00 22,5 8,9 22 12 43 23 NW 1019,8 19 0,0
12.08.2019 21:00:00 24,1 9,7 28 15 49 27 NNW 1018,5 60 0,0
12.08.2019 20:00:00 26,1 9,4 35 19 51 28 WNW 1017,3 26 0,0
12.08.2019 19:00:00 26,8 8,7 32 18 50 27 NW 1016,7 32 0,0
12.08.2019 18:00:00 28,6 8,8 39 21 58 31 NW 1016,3 16 0,0
12.08.2019 17:00:00 29,2 9,8 30 16 54 29 NNW 1015,6 15 0,0
12.08.2019 16:00:00 29,5 10,6 27 15 55 30 NW 1015,6 20 0,0
12.08.2019 15:00:00 29,4 10,0 21 12 50 27 NW 1015,9 25 0,0
12.08.2019 14:00:00 28,3 10,0 27 14 44 24 NNW 1016,3 39 0,0
12.08.2019 13:00:00 27,7 9,5 29 15 45 24 NNW 1016,3 59 0,0
12.08.2019 12:00:00 26,9 10,1 25 14 44 24 NNW 1016,3 60 0,0
12.08.2019 11:00:00 25,5 12,7 14 8 24 13 WSW 1016,4 60 0,0
12.08.2019 10:00:00 23,2 12,2 15 8 29 16 W 1016,2 16 0,0
12.08.2019 09:00:00 22,6 12,5 13 7 29 16 WNW 1015,9 53 0,0
12.08.2019 08:00:00 19,9 13,6 9 5 28 15 W 1015,5 60 0,0
12.08.2019 07:00:00 20,6 13,3 17 9 25 14 WNW 1015,7 60 0,0
12.08.2019 06:00:00 20,9 14,1 10 5 18 10 W 1015,6 60 0,0
12.08.2019 05:00:00 20,7 14,1 16 8 25 13 WNW 1015,2 60 0,0
12.08.2019 04:00:00 20,8 14,4 11 6 25 14 W 1015,4 60 0,0
12.08.2019 03:00:00 20,6 14,9 13 7 18 10 WNW 1015,5 60 0,0
12.08.2019 02:00:00 20,9 14,8 12 7 21 11 W 1016,0 60 0,0
12.08.2019 01:00:00 21,2 15,1 15 8 29 15 WNW 1016,0 60 0,0
12.08.2019 00:00:00 21,7 15,1 20 11 33 18 W 1015,9 60 0,0
11.08.2019 23:00:00 22,4 15,3 22 12 38 20 W 1015,4 60 0,0
11.08.2019 22:00:00 25,6 14,7 18 10 41 22 WNW 1014,8 60 0,0
11.08.2019 21:00:00 26,2 14,6 27 15 41 22 NW 1014,2 60 0,0
11.08.2019 20:00:00 27,6 14,6 29 16 44 24 WNW 1013,6 41 0,0
11.08.2019 19:00:00 28,1 15,0 24 13 54 29 W 1012,8 36 0,0
11.08.2019 18:00:00 28,9 15,1 34 19 50 27 W 1012,4 17 0,0
11.08.2019 17:00:00 31,9 15,8 26 14 44 24 W 1012,1 21 0,0

tt = Température de l'air
td = dewpoint
ff = Vitesse du vent
fx = gusts
dd = Direction du vent
ppp = reduced air pressure
vv = visibility
rr = Quantités de précipitations

stations d'obs. à proximité